EW9965 Weather Reports


time (UTC)temp
C
wind
direction
speed
KPH
gust
KPH
rain 1hr
cm
rain 24hr
cm
rain mn
cm
humidity
%
barometer
mb
20260506180013 20 123 3.2 9.7 0.00 0.00 0.00 57 1018.0
20260506174511 20 221 4.8 14.5 0.00 0.00 0.00 58 1018.1
20260506173005 20 303 3.2 8.0 0.00 0.00 0.00 60 1018.3
20260506171600 19 260 3.2 11.3 0.00 0.00 0.00 62 1018.4
20260506170113 18 326 3.2 9.7 0.00 0.00 0.00 62 1018.4
20260506164553 17 261 3.2 9.7 0.00 0.00 0.00 63 1018.4
20260506163101 17 237 3.2 9.7 0.00 0.00 0.00 62 1018.5
20260506161545 17 184 1.6 9.7 0.00 0.00 0.00 66 1018.5
20260506160042 16 1 1.6 9.7 0.00 0.00 0.00 68 1018.5
20260506154535 16 236 3.2 8.0 0.00 0.03 0.00 69 1018.5
20260506153031 15 101 0.0 6.4 0.00 0.03 0.00 71 1018.6
20260506151526 15 16 0.0 6.4 0.00 0.03 0.00 72 1018.7
20260506150022 14 330 0.0 3.2 0.00 0.03 0.00 76 1018.8
20260506144518 13 242 0.0 3.2 0.00 0.20 0.00 84 1018.7
20260506143025 12 126 1.6 6.4 0.00 0.20 0.00 87 1018.7
20260506141510 11 22 0.0 3.2 0.00 0.20 0.00 88 1018.6
20260506140005 10 41 6.4 9.7 0.00 0.30 0.00 89 1018.6
20260506134600 10 7 0.0 3.2 0.00 0.30 0.00 89 1018.7
20260506133058 10 7 0.0 0.0 0.00 0.30 0.00 89 1018.5
20260506131555 10 7 0.0 3.2 0.00 0.30 0.00 88 1018.4
20260506130059 10 4 0.0 0.0 0.00 0.30 0.00 88 1018.3
20260506124550 10 4 0.0 0.0 0.00 0.33 0.00 88 1018.2
20260506123050 10 4 0.0 0.0 0.00 0.33 0.00 88 1018.1
20260506121552 9 4 1.6 6.4 0.00 0.33 0.00 88 1017.8
20260506120048 9 20 1.6 4.8 0.00 0.33 0.00 88 1017.8
20260506114548 9 12 1.6 8.0 0.00 0.33 0.00 88 1017.8
20260506113045 9 30 0.0 0.0 0.00 0.33 0.00 87 1017.7
20260506111543 9 30 1.6 3.2 0.00 0.33 0.00 87 1017.7
20260506110042 9 30 0.0 0.0 0.00 0.33 0.00 86 1017.8
20260506104541 10 30 0.0 3.2 0.00 0.38 0.00 86 1017.8
20260506103047 10 30 0.0 3.2 0.00 0.38 0.00 86 1017.6
20260506101539 10 30 1.6 3.2 0.00 0.38 0.00 86 1017.6
20260506100037 10 30 0.0 6.4 0.00 0.38 0.00 86 1017.4
20260506094536 10 32 1.6 6.4 0.00 0.48 0.00 85 1017.4
20260506093034 10 13 0.0 3.2 0.00 0.48 0.00 85 1017.3
20260506091534 10 13 0.0 3.2 0.00 0.48 0.00 84 1017.4
20260506090042 10 22 0.0 0.0 0.00 0.48 0.00 84 1017.5
20260506084527 11 22 0.0 1.6 0.00 0.58 0.00 84 1017.7
20260506083026 11 9 1.6 6.4 0.00 0.58 0.00 84 1017.8
20260506081523 11 18 0.0 3.2 0.00 0.58 0.00 83 1017.9
20260506073018 11 27 0.0 6.4 0.00 0.58 0.00 81 1018.1
20260506071516 12 66 0.0 1.6 0.00 0.58 0.00 80 1018.2
20260506061520 12 202 0.0 0.0 0.00 0.58 0.58 79 1017.8
20260506050124 13 202 0.0 0.0 0.00 0.58 0.58 76 1017.9
20260506044508 13 202 0.0 0.0 0.00 0.58 0.58 73 1017.5
20260506043007 13 202 0.0 0.0 0.00 0.58 0.58 71 1017.4
20260506041503 13 202 0.0 0.0 0.00 0.58 0.58 70 1017.2
20260506040001 14 202 0.0 0.0 0.00 0.58 0.58 70 1017.1
20260506034606 14 202 0.0 0.0 0.00 0.58 0.58 70 1016.9
20260506033059 14 220 0.0 6.4 0.00 0.58 0.58 69 1016.7
20260506031557 15 181 1.6 9.7 0.00 0.58 0.58 68 1016.5
20260506030057 15 259 0.0 9.7 0.00 0.58 0.58 67 1016.2
20260506024559 15 235 0.0 8.0 0.00 0.58 0.58 65 1015.9
20260506023053 15 224 3.2 9.7 0.00 0.58 0.58 64 1015.7
20260506021602 16 239 4.8 12.9 0.00 0.58 0.58 62 1015.4
20260506020052 16 195 1.6 16.1 0.00 0.58 0.58 59 1015.2
20260506014551 17 180 4.8 16.1 0.00 0.58 0.58 59 1015.1
20260506013057 17 255 6.4 16.1 0.00 0.58 0.58 56 1015.0
20260506011603 17 195 8.0 17.7 0.00 0.58 0.58 56 1014.9
20260506010050 18 233 4.8 19.3 0.00 0.58 0.58 55 1014.8
20260506004550 18 209 3.2 20.9 0.00 0.58 0.58 52 1014.7
20260506003049 19 238 8.0 22.5 0.00 0.58 0.58 51 1014.6
20260506001551 20 265 8.0 19.3 0.00 0.58 0.58 50 1014.5
20260506000049 20 269 8.0 19.3 0.00 0.58 0.58 48 1014.5
20260505234551 20 178 3.2 19.3 0.00 0.58 0.58 50 1014.5
20260505233046 18 207 6.4 17.7 0.00 0.58 0.58 53 1014.6
20260505231601 18 267 4.8 17.7 0.00 0.58 0.58 51 1014.6
20260505230050 20 235 8.0 25.7 0.00 0.58 0.58 47 1014.7
20260505224544 20 266 4.8 12.9 0.00 0.58 0.58 49 1014.8
20260505223043 20 182 9.7 17.7 0.00 0.58 0.58 49 1014.8
20260505221542 20 201 6.4 19.3 0.00 0.58 0.58 47 1014.9
20260505220042 20 220 6.4 22.5 0.00 0.58 0.58 52 1015.0
20260505214602 19 236 6.4 22.5 0.00 0.58 0.58 54 1015.1
20260505213040 20 226 3.2 16.1 0.00 0.58 0.58 51 1015.1
20260505211539 20 249 6.4 17.7 0.00 0.58 0.58 53 1015.3
20260505210039 20 230 9.7 22.5 0.00 0.58 0.58 51 1015.4
20260505204536 20 180 6.4 17.7 0.00 0.58 0.58 53 1015.4
20260505203034 18 174 6.4 16.1 0.00 0.58 0.58 55 1015.6
20260505201531 18 182 6.4 19.3 0.00 0.58 0.58 58 1015.5
20260505200040 18 222 4.8 14.5 0.00 0.58 0.58 57 1015.6
20260505194527 17 256 6.4 16.1 0.00 0.58 0.58 60 1015.8
20260505193023 16 230 4.8 16.1 0.00 0.58 0.58 65 1016.0
20260505191521 16 278 4.8 14.5 0.00 0.58 0.58 70 1016.0
20260505190026 16 203 4.8 12.9 0.00 0.58 0.58 71 1016.0
20260505184520 16 259 6.4 14.5 0.00 0.58 0.58 75 1015.9
20260505183021 15 149 1.6 8.0 0.00 0.58 0.58 80 1015.9
20260505181512 15 223 0.0 3.2 0.00 0.58 0.58 86 1016.1